This demonstration page uses our WeatherBlox Daily Observations layout. Learn more.

Left ArrowRight Arrow

40.92945, -100.16068

Hourly Observations for November 17, 2018

Temp ( °F °C ) Dew Point ( °F °C ) Humidity (%) Winds ( mph kmh ) Pressure ( in mb ) Visibility ( mi km ) Precip ( " mm )
12:15 am 00:15 Cloudy 41 5 31 -0.5 68 68 N 20 31 30.12 1020 10 16.0934 0 0
12:35 am 00:35 Mostly Cloudy 40 4.2 31 -0.6 71 71 N 17 28 30.18 1022 10 16.0934 0 0
12:55 am 00:55 Mostly Cloudy 38 3.2 31 -0.7 76 76 N 17 28 30.18 1022 10 16.0934 0 0
1:15 am 01:15 Mostly Cloudy 37 2.6 30 -0.9 78 78 N 22 35 30.18 1022 10 16.0934 0 0
1:35 am 01:35 Cloudy 35 1.7 28 -2 77 77 N 17 28 30.18 1022 10 16.0934 0 0
1:55 am 01:55 Cloudy 34 1.1 28 -2.5 77 77 N 21 33 30.21 1023 10 16.0934 0 0
2:15 am 02:15 Cloudy 33 0.4 27 -3 78 78 N 22 35 30.24 1024 10 16.0934 0 0
2:35 am 02:35 Cloudy 32 0 26 -3.6 77 77 N 20 31 30.27 1025 10 16.0934 0 0
2:55 am 02:55 Cloudy 31 -0.7 25 -3.7 80 80 N 22 35 30.27 1025 10 16.0934 0 0
3:15 am 03:15 Cloudy 30 -1 25 -3.8 82 82 N 28 44 30.33 1027 10 16.0934 0 0
3:35 am 03:35 Cloudy 30 -1.3 25 -4 82 82 N 22 35 30.33 1027 10 16.0934 0 0
3:55 am 03:55 Cloudy 29 -1.6 25 -4 84 84 N 23 37 30.33 1027 10 16.0934 0 0
4:15 am 04:15 Cloudy 29 -1.7 25 -4.1 84 84 NNE 22 35 30.36 1028 10 16.0934 0 0
4:35 am 04:35 Cloudy 28 -2 24 -4.5 83 83 N 23 37 30.33 1027 10 16.0934 0 0
4:55 am 04:55 Cloudy 28 -2.2 23 -4.8 83 83 NNE 23 37 30.36 1028 10 16.0934 0 0
5:15 am 05:15 Cloudy 28 -2.5 24 -4.6 86 86 NNE 18 30 30.36 1028 10 16.0934 0 0
5:35 am 05:35 Cloudy 28 -2.5 23 -4.8 84 84 N 25 41 30.39 1029 10 16.0934 0 0
5:55 am 05:55 Cloudy 27 -2.8 23 -5 85 85 NNE 23 37 30.39 1029 10 16.0934 0 0
6:15 am 06:15 Cloudy 27 -3 23 -5.2 85 85 NNE 15 24 30.42 1030 10 16.0934 0 0
6:35 am 06:35 Cloudy 26 -3.1 23 -5.2 86 86 NNE 20 31 30.42 1030 10 16.0934 0 0
6:55 am 06:55 Cloudy 27 -3 23 -5.1 86 86 NNE 15 24 30.45 1031 10 16.0934 0 0
7:15 am 07:15 Cloudy 27 -3 23 -5.1 86 86 NNE 22 35 30.45 1031 10 16.0934 0 0
7:35 am 07:35 Cloudy 27 -3 23 -5.1 86 86 NNE 20 31 30.45 1031 10 16.0934 0 0
7:55 am 07:55 Cloudy 26 -3.1 22 -5.4 84 84 NNE 23 37 30.45 1031 10 16.0934 0 0
8:15 am 08:15 Cloudy 26 -3.5 21 -5.9 84 84 NNE 20 31 30.45 1031 10 16.0934 0 0
8:35 am 08:35 Cloudy 25 -4 20 -6.5 83 83 NNE 20 31 30.48 1032 10 16.0934 0 0
8:55 am 08:55 Cloudy 24 -4.6 19 -7.2 82 82 NNE 23 37 30.48 1032 10 16.0934 0 0
9:15 am 09:15 Cloudy 24 -4.3 18 -7.7 77 77 N 15 24 30.5 1033 10 16.0934 0 0
9:35 am 09:35 Cloudy 24 -4.3 17 -8.5 73 73 NNE 18 30 30.5 1033 10 16.0934 0 0
9:55 am 09:55 Cloudy 25 -4.1 17 -8.5 72 72 N 16 26 30.53 1034 10 16.0934 0 0
10:15 am 10:15 Cloudy 24 -4.4 15 -9.3 69 69 NNE 20 31 30.53 1034 10 16.0934 0 0
10:35 am 10:35 Cloudy 24 -4.2 16 -9.1 69 69 NNE 18 30 30.53 1034 10 16.0934 0 0
10:55 am 10:55 Cloudy 25 -4 16 -9 69 69 N 22 35 30.53 1034 10 16.0934 0 0
11:15 am 11:15 Cloudy 25 -4 15 -9.4 66 66 NNE 16 26 30.53 1034 10 16.0934 0 0
11:35 am 11:35 Cloudy 25 -4.1 15 -9.4 67 67 NNE 17 28 30.53 1034 10 16.0934 0 0
11:55 am 11:55 Cloudy 26 -3.6 16 -8.9 67 67 N 17 28 30.53 1034 10 16.0934 0 0
12:15 pm 12:15 Cloudy 26 -3.6 16 -9.1 66 66 NNE 15 24 30.53 1034 10 16.0934 0 0
12:35 pm 12:35 Cloudy 25 -3.7 16 -9.1 67 67 NNE 17 28 30.53 1034 10 16.0934 0 0
12:55 pm 12:55 Cloudy 26 -3.6 16 -9.1 66 66 N 18 30 30.5 1033 10 16.0934 0 0
1:15 pm 13:15 Cloudy 25 -3.7 15 -9.2 66 66 N 18 30 30.5 1033 10 16.0934 0 0
1:35 pm 13:35 Cloudy with Light Snow 24 -4.2 17 -8.6 72 72 NNE 16 26 30.5 1033 5 8.0467 0 0
1:55 pm 13:55 Cloudy with Light Snow 23 -4.8 19 -7.5 82 82 N 15 24 30.5 1033 1.5 2.41401 0 0
2:15 pm 14:15 Cloudy with Light Snow 23 -5 18 -7.6 82 82 NNE 16 26 30.56 1035 1.25 2.011675 0 0
2:35 pm 14:35 Cloudy with Light Snow 22 -5.3 18 -7.8 83 83 NNE 15 24 30.56 1035 1.25 2.011675 0 0
2:55 pm 14:55 Cloudy with Light Snow 22 -5.3 18 -7.7 83 83 NNE 13 20 30.56 1035 2.5 4.02335 0 0
3:15 pm 15:15 Cloudy with Light Snow 23 -5 19 -7.5 83 83 NNE 10 17 30.56 1035 2 3.21868 0 0
3:35 pm 15:35 Cloudy with Light Snow 23 -5 18 -7.6 82 82 N 15 24 30.53 1034 2.5 4.02335 0 0
3:55 pm 15:55 Cloudy 22 -5.3 18 -7.7 83 83 NNE 10 17 30.56 1035 7 11.26538 0 0
4:15 pm 16:15 Cloudy 22 -5.3 18 -8 82 82 NNE 10 17 30.56 1035 7 11.26538 0 0
4:35 pm 16:35 Cloudy with Light Snow 22 -5.3 19 -7.5 85 85 N 10 17 30.56 1035 2.5 4.02335 0 0
4:55 pm 16:55 Cloudy with Light Snow 22 -5.5 17 -8.1 82 82 NNE 14 22 30.56 1035 2.5 4.02335 0 0
5:15 pm 17:15 Cloudy with Light Snow 22 -5.8 17 -8.5 81 81 N 15 24 30.56 1035 2 3.21868 0 0
5:35 pm 17:35 Cloudy with Light Snow 21 -6 17 -8.2 85 85 N 12 19 30.56 1035 3 4.82802 0 0
5:55 pm 17:55 Cloudy with Light Snow 22 -5.8 18 -8 85 85 N 14 22 30.56 1035 2.5 4.02335 0 0
6:15 pm 18:15 Cloudy with Light Snow 21 -6 17 -8.3 84 84 N 10 17 30.56 1035 2.5 4.02335 0 0
6:35 pm 18:35 Cloudy with Light Snow 21 -6.1 17 -8.6 83 83 N 14 22 30.56 1035 3 4.82802 0 0
6:55 pm 18:55 Cloudy with Haze 21 -6.1 17 -8.6 83 83 N 9 15 30.56 1035 5 8.0467 0 0
7:15 pm 19:15 Cloudy with Light Snow 21 -6.1 17 -8.5 83 83 NNE 8 13 30.56 1035 3 4.82802 0 0
7:35 pm 19:35 Cloudy with Light Snow 21 -6.2 17 -8.5 84 84 N 7 11 30.56 1035 2.5 4.02335 0 0
7:55 pm 19:55 Cloudy with Light Snow 21 -6.1 17 -8.2 85 85 N 8 13 30.56 1035 2.5 4.02335 0 0
8:15 pm 20:15 Cloudy with Light Snow 21 -6.1 17 -8.5 83 83 N 9 15 30.56 1035 3 4.82802 0 0
8:35 pm 20:35 Cloudy with Light Snow 21 -6.1 17 -8.6 83 83 N 9 15 30.56 1035 4 6.43736 0 0
8:55 pm 20:55 Cloudy with Light Snow 21 -6.2 17 -8.5 84 84 NNE 8 13 30.56 1035 4 6.43736 0 0
9:15 pm 21:15 Cloudy with Light Snow 21 -6.2 17 -8.6 83 83 NNE 8 13 30.56 1035 4 6.43736 0 0
9:35 pm 21:35 Cloudy with Light Snow 21 -6.2 17 -8.6 83 83 NNE 6 9 30.56 1035 5 8.0467 0 0
9:55 pm 21:55 Cloudy 21 -6.2 15 -9.3 79 79 N 8 13 30.56 1035 10 16.0934 0 0
10:15 pm 22:15 Cloudy 21 -6.2 14 -10 75 75 N 8 13 30.56 1035 10 16.0934 0 0
10:35 pm 22:35 Cloudy 21 -6.3 14 -10 75 75 N 10 17 30.56 1035 10 16.0934 0 0
10:55 pm 22:55 Cloudy 20 -6.6 14 -10.2 76 76 N 8 13 30.56 1035 10 16.0934 0 0
11:15 pm 23:15 Mostly Cloudy 19 -7.1 13 -10.5 77 77 N 6 9 30.56 1035 10 16.0934 0 0
11:35 pm 23:35 Partly Cloudy 17 -8.4 12 -11.1 81 81 NNW 6 9 30.59 1036 10 16.0934 0 0
11:55 pm 23:55 Partly Cloudy 17 -8.1 13 -10.8 81 81 N 6 9 30.59 1036 10 16.0934 0 0

Powered by AerisWeather